Flag for Finland Weather past 2 weeks in Kuopio, Finland

Now
52 °F

Clear.


Feels Like: 51 °F
Forecast: 55 / 64 °F
Wind: 5 mph from Southwest

Location: Kuopio Airport

Current Time: Aug 23, 2014 at 3:12:28 AM

Latest Report: Aug 23, 2014 at 2:50 AM


Visibility: 10 mi

Pressure: 29.68 "Hg

Humidity: 88%

Dew point: 48 °F

Location of KuopioLocation

Historic Weather in Kuopio — Graph

°F

Kuopio temperature yesterday

Maximum temperature yesterday: 64 °F (at 5:50 PM)
Minimum temperature yesterday: 52 °F (at 10:50 PM)
Average temperature yesterday: 58 °F

Past Weeks' High & Low Weather Summary

 TemperatureHumidityPressure
High77 °F (Aug 8, 12:50 PM)100% (Aug 12, 6:20 AM)29.92 "Hg (Aug 12, 6:20 AM)
Low52 °F (Aug 17, 4:20 AM)37% (Aug 17, 12:20 PM)29.45 "Hg (Aug 19, 10:50 AM)
Average63 °F76%29.65 "Hg
* Reported Aug 8 1:20 AM — Aug 23 1:50 AM, Kuopio, Weather by CustomWeather, © 2014

Note: Actual official high and low records may vary slightly from our data, if they occured in-between our weather recording intervals... More about our weather records

Advertising

Kuopio weather history for previous 24 hours

 ConditionsComfort  
Time TempWeatherWind HumidityBarometerVisibility
1:50 AM
Aug 23
52 °FClear.6 mph88%29.68 "Hg10 mi
1:20 AM52 °FPassing clouds.6 mph88%29.68 "HgN/A
12:50 AM54 °FClear.3 mph88%29.68 "Hg10 mi
12:20 AM54 °FPassing clouds.3 mph82%29.68 "HgN/A
11:50 PM
Aug 22
55 °FClear.5 mph77%29.68 "Hg10 mi
11:20 PM57 °FClear.5 mph72%29.65 "Hg10 mi
10:50 PM52 °FClear.5 mph82%29.65 "Hg10 mi
10:20 PM55 °FClear.5 mph72%29.65 "Hg10 mi
9:50 PM55 °FSunny.2 mph77%29.65 "Hg10 mi
9:20 PM57 °FPassing clouds.3 mph94%29.65 "HgN/A
8:50 PM59 °FSunny.2 mph72%29.65 "Hg10 mi
8:20 PM61 °FSunny.2 mph63%29.65 "Hg10 mi
7:50 PM61 °FSunny.5 mph68%29.65 "Hg10 mi
7:20 PM63 °FSunny.7 mph59%29.65 "Hg10 mi
6:50 PM63 °FScattered clouds.7 mph59%29.65 "HgN/A
6:20 PM63 °FPartly sunny.7 mph59%29.65 "HgN/A
5:50 PM64 °FSunny.6 mph52%29.65 "Hg10 mi
5:20 PM63 °FPassing clouds.3 mph59%29.65 "HgN/A
4:50 PM63 °FSunny.2 mph59%29.65 "Hg10 mi
4:20 PM63 °FSunny.6 mph59%29.65 "Hg10 mi
3:50 PM63 °FPassing clouds.5 mph64%29.65 "HgN/A
3:20 PM61 °FPassing clouds.6 mph68%29.65 "HgN/A
2:50 PM59 °FPassing clouds.6 mph72%29.65 "HgN/A
2:20 PM61 °FBroken clouds.7 mph72%29.65 "HgN/A
1:50 PM61 °FPartly sunny.5 mph63%29.68 "HgN/A
1:20 PM59 °FPartly sunny.6 mph68%29.68 "HgN/A
12:50 PM61 °FPassing clouds.5 mph63%29.68 "HgN/A
12:20 PM59 °FPassing clouds.2 mph72%29.68 "HgN/A
11:50 AM57 °FPartly sunny.5 mph82%29.68 "HgN/A
11:20 AM57 °FPartly sunny.7 mph77%29.68 "HgN/A
10:50 AM57 °FPartly sunny.6 mph77%29.68 "HgN/A
10:20 AM57 °FPartly sunny.8 mph82%29.68 "HgN/A
9:50 AM57 °FPartly sunny.6 mph82%29.68 "HgN/A
9:20 AM55 °FBroken clouds.3 mph88%29.68 "HgN/A
8:50 AM55 °FOvercast.6 mph88%29.68 "HgN/A
8:20 AM55 °FOvercast.7 mph88%29.68 "HgN/A
7:50 AM55 °FPartly sunny.8 mph88%29.68 "HgN/A
7:20 AM54 °FPartly sunny.6 mph94%29.68 "HgN/A
6:50 AM54 °FBroken clouds.6 mph94%29.71 "HgN/A
6:20 AM54 °FPassing clouds.5 mph94%29.71 "HgN/A
5:20 AM54 °FMostly cloudy.5 mph94%29.71 "HgN/A
4:50 AM54 °FOvercast.7 mph94%29.71 "HgN/A
4:20 AM55 °FMostly cloudy.9 mph88%29.68 "HgN/A
3:50 AM55 °FOvercast.7 mph88%29.68 "HgN/A
3:20 AM55 °FClear.8 mph88%29.68 "Hg10 mi
Weather by CustomWeather, © 2014

See weather overviewHow to use our weather pages